FW4541 Weather Reports


time (UTC)temp
C
wind
direction
speed
KPH
gust
KPH
rain 1hr
cm
rain 24hr
cm
rain mn
cm
humidity
%
barometer
mb
20260505093157 10 114 0.0 0.0 0.00 0.00 0.00 92 1015.3
20260505092654 10 114 0.0 0.0 0.00 0.00 0.00 92 1015.1
20260505092152 10 114 0.0 0.0 0.00 0.00 0.00 92 1015.1
20260505091649 10 114 0.0 0.0 0.00 0.00 0.00 91 1015.1
20260505091147 10 114 0.0 0.0 0.00 0.00 0.00 91 1015.0
20260505090644 10 114 0.0 0.0 0.00 0.00 0.00 91 1014.9
20260505090143 10 114 0.0 0.0 0.00 0.00 0.00 90 1015.0
20260505085640 10 114 0.0 0.0 0.00 0.00 0.00 90 1014.8
20260505085138 11 114 0.0 0.0 0.00 0.00 0.00 89 1014.8
20260505084635 11 114 0.0 0.0 0.00 0.00 0.00 89 1014.8
20260505084133 11 114 0.0 0.0 0.00 0.00 0.00 89 1014.7
20260505083631 11 114 0.0 0.0 0.00 0.00 0.00 88 1014.7
20260505083127 11 114 0.0 0.0 0.00 0.00 0.00 88 1014.8
20260505082623 11 114 0.0 0.0 0.00 0.00 0.00 88 1014.7
20260505082120 11 114 0.0 0.0 0.00 0.00 0.00 88 1014.8
20260505081616 11 114 0.0 0.0 0.00 0.00 0.00 87 1014.5
20260505081114 11 114 0.0 0.0 0.00 0.00 0.00 87 1014.8
20260505080610 11 114 0.0 0.0 0.00 0.00 0.00 86 1014.7
20260505080106 11 114 0.0 0.0 0.00 0.00 0.00 85 1014.7
20260505075602 11 114 0.0 0.0 0.00 0.00 0.00 85 1014.7
20260505075059 12 114 0.0 0.0 0.00 0.00 0.00 83 1014.7
20260505074556 12 114 0.0 0.0 0.00 0.00 0.00 83 1014.6
20260505074053 12 114 0.0 0.0 0.00 0.00 0.00 82 1014.6
20260505073550 12 114 0.0 0.0 0.00 0.00 0.00 82 1015.0
20260505073049 12 114 0.0 0.0 0.00 0.00 0.00 82 1014.6
20260505072549 12 114 0.0 0.0 0.00 0.00 0.00 81 1014.5
20260505072047 12 114 0.0 0.0 0.00 0.00 0.00 81 1014.6
20260505071542 12 114 0.0 0.0 0.00 0.00 0.00 81 1014.6
20260505071040 12 114 0.0 0.0 0.00 0.00 0.00 80 1014.6
20260505070537 13 114 0.0 0.0 0.00 0.00 0.00 79 1014.5
20260505070033 13 114 0.0 0.0 0.00 0.00 0.00 78 1014.5
20260505065529 13 112 0.0 0.0 0.00 0.00 0.00 77 1014.5
20260505065026 13 112 0.0 0.0 0.00 0.00 0.00 77 1014.4
20260505064523 13 115 0.0 0.0 0.00 0.00 0.00 77 1014.4
20260505064021 13 114 0.0 0.0 0.00 0.00 0.00 76 1014.5
20260505063518 13 115 0.0 0.0 0.00 0.00 0.00 76 1014.5
20260505063014 13 117 0.0 0.0 0.00 0.00 0.00 75 1014.5
20260505062511 13 113 0.0 0.0 0.00 0.00 0.00 75 1014.3
20260505062008 13 108 0.0 0.0 0.00 0.00 0.00 75 1014.7
20260505061506 13 118 0.0 0.0 0.00 0.00 0.00 74 1014.7
20260505061003 13 125 0.0 0.0 0.00 0.00 0.00 74 1014.4
20260505060500 13 125 0.0 0.0 0.00 0.00 0.00 74 1014.7
20260505055956 13 125 0.0 0.0 0.00 0.00 0.00 74 1014.7
20260505055452 13 125 0.0 0.0 0.00 0.00 0.00 74 1014.7
20260505054949 13 125 0.0 0.0 0.00 0.00 0.00 73 1014.8
20260505054447 14 125 0.0 0.0 0.00 0.00 0.00 73 1014.6
20260505053945 14 125 0.0 0.0 0.00 0.00 0.00 72 1014.6
20260505053441 14 125 0.0 1.6 0.00 0.00 0.00 72 1014.8
20260505052938 14 125 0.0 0.0 0.00 0.00 0.00 72 1014.8
20260505052435 14 125 0.0 0.0 0.00 0.00 0.00 71 1014.8
20260505051932 14 125 0.0 1.6 0.00 0.00 0.00 71 1014.8
20260505051429 14 126 0.0 0.0 0.00 0.00 0.00 70 1015.0
20260505050927 14 126 0.0 0.0 0.00 0.00 0.00 70 1015.0
20260505050426 14 126 0.0 0.0 0.00 0.00 0.00 69 1014.9
20260505041353 13 126 0.0 0.0 0.00 0.00 0.00 71 1014.9
20260505040850 13 126 0.0 0.0 0.00 0.00 0.00 69 1014.8
20260505040348 13 126 0.0 0.0 0.00 0.00 0.00 70 1015.1
20260505035844 13 126 0.0 0.0 0.00 0.00 0.00 70 1014.7
20260505035340 13 126 0.0 0.0 0.00 0.00 0.00 70 1014.7
20260505034838 13 126 0.0 0.0 0.00 0.00 0.00 69 1014.8
20260505034334 13 126 0.0 0.0 0.00 0.00 0.00 68 1014.8
20260505033831 13 126 0.0 0.0 0.00 0.00 0.00 71 1014.8
20260505033328 13 126 0.0 0.0 0.00 0.00 0.00 68 1014.8
20260505032826 13 126 0.0 0.0 0.00 0.00 0.00 68 1015.0
20260505032322 13 126 0.0 0.0 0.00 0.00 0.00 69 1015.0
20260505031820 13 126 0.0 0.0 0.00 0.00 0.00 70 1014.9
20260505031316 13 126 0.0 0.0 0.00 0.00 0.00 68 1015.1
20260505030813 14 126 0.0 0.0 0.00 0.00 0.00 68 1014.8
20260505030310 14 126 0.0 0.0 0.00 0.00 0.00 68 1014.8
20260505025805 14 126 0.0 0.0 0.00 0.00 0.00 69 1014.6
20260505025304 15 126 0.0 0.0 0.00 0.00 0.00 65 1014.8
20260505024801 15 126 0.0 0.0 0.00 0.00 0.00 68 1014.7
20260505024258 15 126 0.0 0.0 0.00 0.00 0.00 62 1015.0
20260505023755 15 126 0.0 0.0 0.00 0.00 0.00 62 1014.8
20260505023252 15 126 0.0 0.0 0.00 0.00 0.00 64 1015.0
20260505022749 15 126 0.0 0.0 0.00 0.00 0.00 66 1014.7
20260505022246 15 126 0.0 0.0 0.00 0.00 0.00 66 1014.7
20260505021743 15 126 0.0 0.0 0.00 0.00 0.00 64 1014.6
20260505021240 15 126 0.0 0.0 0.00 0.00 0.00 66 1014.7
20260505020736 15 126 0.0 0.0 0.00 0.00 0.00 65 1014.5
20260505020231 15 126 0.0 0.0 0.00 0.00 0.00 66 1014.6
20260505015729 15 126 0.0 0.0 0.00 0.00 0.00 66 1014.6
20260505015226 15 126 0.0 0.0 0.00 0.00 0.00 64 1014.7
20260505014723 15 126 0.0 0.0 0.00 0.00 0.00 64 1014.3
20260505014220 15 126 0.0 0.0 0.00 0.00 0.00 66 1014.5
20260505013716 15 126 0.0 0.0 0.00 0.00 0.00 60 1014.4
20260505013214 15 126 0.0 0.0 0.00 0.00 0.00 60 1014.3
20260505012712 16 126 0.0 0.0 0.00 0.00 0.00 59 1014.1
20260505012209 16 126 0.0 0.0 0.00 0.00 0.00 60 1014.3
20260505011704 16 126 0.0 0.0 0.00 0.00 0.00 61 1014.2
20260505011202 16 126 0.0 0.0 0.00 0.00 0.00 58 1014.1
20260505010657 17 126 0.0 0.0 0.00 0.00 0.00 58 1014.1
20260505010154 17 126 0.0 0.0 0.00 0.00 0.00 55 1014.2
20260505005650 17 126 0.0 0.0 0.00 0.00 0.00 54 1013.8
20260505005147 17 126 0.0 0.0 0.00 0.00 0.00 52 1013.9
20260505004644 18 126 0.0 0.0 0.00 0.00 0.00 49 1013.5
20260505004141 18 126 0.0 0.0 0.00 0.00 0.00 49 1013.7
20260505003638 18 126 0.0 0.0 0.00 0.00 0.00 48 1013.6
20260505003136 19 126 0.0 0.0 0.00 0.00 0.00 47 1013.7
20260505002631 19 126 0.0 0.0 0.00 0.00 0.00 46 1013.6
20260505002130 20 126 0.0 0.0 0.00 0.00 0.00 46 1013.5
20260505001626 20 126 0.0 0.0 0.00 0.00 0.00 45 1013.5
20260505001124 20 126 0.0 0.0 0.00 0.00 0.00 44 1013.4
20260505000621 20 126 0.0 0.0 0.00 0.00 0.00 43 1013.3
20260505000119 21 126 0.0 0.0 0.00 0.00 0.00 42 1013.5
20260504235615 21 126 0.0 0.0 0.00 0.00 0.00 41 1013.6
20260504235112 21 126 0.0 0.0 0.00 0.00 0.00 41 1013.3
20260504234609 21 126 0.0 0.0 0.00 0.00 0.00 40 1013.2
20260504234106 22 126 0.0 0.0 0.00 0.00 0.00 39 1013.2
20260504233601 22 126 0.0 0.0 0.00 0.00 0.00 39 1013.0
20260504233058 22 126 0.0 0.0 0.00 0.00 0.00 38 1013.2
20260504232555 23 126 0.0 0.0 0.00 0.00 0.00 37 1012.9
20260504232053 23 127 0.0 1.6 0.00 0.00 0.00 36 1012.8
20260504231549 23 131 1.6 1.6 0.00 0.00 0.00 36 1013.2
20260504231045 23 136 1.6 1.6 0.00 0.00 0.00 36 1013.0
20260504230541 23 124 0.0 1.6 0.00 0.00 0.00 35 1012.9
20260504230041 23 120 0.0 1.6 0.00 0.00 0.00 35 1012.7
20260504225537 23 120 1.6 1.6 0.00 0.00 0.00 36 1012.8
20260504225035 24 116 0.0 0.0 0.00 0.00 0.00 35 1012.9
20260504224531 24 136 1.6 1.6 0.00 0.00 0.00 34 1013.0
20260504224028 24 137 1.6 3.2 0.00 0.00 0.00 34 1012.9
20260504223525 24 131 0.0 3.2 0.00 0.00 0.00 33 1012.8
20260504223021 25 132 1.6 3.2 0.00 0.00 0.00 32 1012.9
20260504222518 25 121 0.0 1.6 0.00 0.00 0.00 32 1013.2
20260504222015 25 129 0.0 1.6 0.00 0.00 0.00 32 1013.0
20260504221513 25 128 0.0 1.6 0.00 0.00 0.00 31 1013.0
20260504221009 25 131 0.0 3.2 0.00 0.00 0.00 30 1012.8
20260504220506 25 140 1.6 3.2 0.00 0.00 0.00 31 1012.8
20260504220003 25 126 1.6 8.0 0.00 0.00 0.00 32 1012.9
20260504215459 25 2 8.0 9.7 0.00 0.00 0.00 31 1013.3
20260504214956 25 123 0.0 1.6 0.00 0.00 0.00 33 1012.9
20260504214452 25 121 3.2 3.2 0.00 0.00 0.00 32 1013.0
20260504213949 25 123 1.6 3.2 0.00 0.00 0.00 31 1012.7
20260504213445 25 101 0.0 1.6 0.00 0.00 0.00 31 1012.9
20260504212943 25 138 1.6 4.8 0.00 0.00 0.00 32 1013.0
20260504212438 25 131 0.0 1.6 0.00 0.00 0.00 32 1013.2
20260504211936 25 125 1.6 1.6 0.00 0.00 0.00 32 1012.9
20260504211432 25 137 1.6 4.8 0.00 0.00 0.00 34 1012.9
20260504210930 25 123 1.6 4.8 0.00 0.00 0.00 31 1012.9
20260504210427 25 125 0.0 1.6 0.00 0.00 0.00 31 1012.9
20260504205924 25 124 0.0 0.0 0.00 0.00 0.00 30 1012.9
20260504205421 25 123 0.0 1.6 0.00 0.00 0.00 31 1012.9
20260504204919 26 96 1.6 3.2 0.00 0.00 0.00 30 1013.3
20260504204418 26 108 3.2 3.2 0.00 0.00 0.00 30 1013.3
20260504203917 26 112 1.6 1.6 0.00 0.00 0.00 29 1013.4
20260504203414 26 125 0.0 1.6 0.00 0.00 0.00 31 1013.0
20260504202909 26 130 1.6 3.2 0.00 0.00 0.00 33 1013.3
20260504202406 26 24 4.8 4.8 0.00 0.00 0.00 31 1013.5
20260504201903 26 126 1.6 4.8 0.00 0.00 0.00 31 1013.5
20260504201401 26 148 3.2 3.2 0.00 0.00 0.00 29 1013.7
20260504200857 26 135 1.6 1.6 0.00 0.00 0.00 31 1013.7
20260504200354 26 130 3.2 3.2 0.00 0.00 0.00 32 1014.0
20260504195851 26 132 1.6 3.2 0.00 0.00 0.00 33 1013.8
20260504195346 26 153 1.6 3.2 0.00 0.00 0.00 34 1013.7
20260504194843 25 68 1.6 3.2 0.00 0.00 0.00 30 1013.9
20260504194339 26 276 4.8 11.3 0.00 0.00 0.00 31 1013.9
20260504193835 25 140 1.6 3.2 0.00 0.00 0.00 31 1014.0
20260504193333 26 131 1.6 3.2 0.00 0.00 0.00 34 1013.8
20260504192831 26 132 1.6 1.6 0.00 0.00 0.00 33 1014.1
20260504192329 27 133 0.0 1.6 0.00 0.00 0.00 31 1014.1
20260504191827 26 134 1.6 3.2 0.00 0.00 0.00 32 1014.3
20260504191325 26 102 0.0 3.2 0.00 0.00 0.00 33 1014.4
20260504190820 25 127 0.0 1.6 0.00 0.00 0.00 34 1014.5
20260504190316 26 121 0.0 3.2 0.00 0.00 0.00 33 1014.4
20260504185813 26 162 1.6 3.2 0.00 0.00 0.00 30 1014.6
20260504185310 25 127 1.6 3.2 0.00 0.00 0.00 36 1014.5
20260504184806 25 101 0.0 8.0 0.00 0.00 0.00 34 1014.6
20260504184302 25 137 1.6 3.2 0.00 0.00 0.00 33 1014.8
20260504183758 25 111 1.6 3.2 0.00 0.00 0.00 29 1014.9
20260504183255 25 149 1.6 1.6 0.00 0.00 0.00 28 1014.9
20260504182753 24 129 0.0 3.2 0.00 0.00 0.00 35 1014.7
20260504182250 24 104 1.6 3.2 0.00 0.00 0.00 35 1015.0
20260504181747 25 100 3.2 3.2 0.00 0.00 0.00 32 1014.8
20260504181244 26 108 1.6 4.8 0.00 0.00 0.00 29 1015.2
20260504180744 25 111 0.0 1.6 0.00 0.00 0.00 30 1015.2
20260504180242 24 100 1.6 3.2 0.00 0.00 0.00 34 1015.3
20260504175739 24 127 1.6 1.6 0.00 0.00 0.00 34 1015.3
20260504175235 25 129 0.0 1.6 0.00 0.00 0.00 33 1015.4
20260504174733 23 125 1.6 1.6 0.00 0.00 0.00 34 1015.2
20260504174231 23 110 1.6 8.0 0.00 0.00 0.00 35 1015.5
20260504173727 23 181 1.6 3.2 0.00 0.00 0.00 36 1015.2
20260504173224 23 138 1.6 1.6 0.00 0.00 0.00 36 1015.5
20260504172721 23 128 0.0 1.6 0.00 0.00 0.00 35 1015.4
20260504172217 24 133 1.6 1.6 0.00 0.00 0.00 37 1015.5
20260504171714 23 128 0.0 3.2 0.00 0.00 0.00 44 1015.4
20260504171211 22 358 4.8 4.8 0.00 0.00 0.00 39 1015.7
20260504170708 23 114 0.0 1.6 0.00 0.00 0.00 37 1015.7
20260504170206 23 118 0.0 1.6 0.00 0.00 0.00 41 1015.4
20260504160124 21 69 4.8 4.8 0.00 0.00 0.00 46 1016.6
20260504151051 19 163 1.6 3.2 0.00 0.00 0.00 58 1016.9
20260504150548 18 100 1.6 3.2 0.00 0.00 0.00 57 1017.0
20260504141014 16 107 0.0 0.0 0.00 0.00 0.00 66 1017.2
20260504140511 15 107 0.0 1.6 0.00 0.00 0.00 67 1017.0
20260504130435 11 112 0.0 0.0 0.00 0.00 0.00 81 1016.7
20260504110322 5 113 0.0 0.0 0.00 0.00 0.00 98 1016.6
20260504100240 5 113 0.0 0.0 0.00 0.00 0.00 98 1016.5